• En España
  • Lista de países
  • Para 7 días
  • Temperatura del agua
  • Mapa Satelital
  • El tiempo en el mapa
  • Informadores
  • user-avatar
    Iniciar sesión

    Tiempo cada hora Yeghegnadzor

    Hoy, 15 Noviembre, Jueves

    Tiempo Temperatura Precipitaciones Viento Presión Humedad
    00:00 +6°C° 0.4 mm 2 mps 651 mmHg 76%
    01:00 +5°C° 0.3 mm 2 mps 651 mmHg 76%
    02:00 +5°C° 0.3 mm 2 mps 651 mmHg 76%
    03:00 +5°C° 0 mm 2 mps 651 mmHg 76%
    04:00 +5°C° 0.2 mm 2 mps 651 mmHg 76%
    05:00 +5°C° 0.2 mm 2 mps 651 mmHg 75%
    06:00 +5°C° 0.2 mm 2 mps 651 mmHg 75%
    07:00 +6°C° 0.2 mm 2 mps 651 mmHg 73%
    08:00 +7°C° 0.2 mm 2 mps 651 mmHg 71%
    09:00 +8°C° 0.2 mm 3 mps 651 mmHg 69%
    10:00 +8°C° 0.1 mm 3 mps 651 mmHg 67%
    11:00 +9°C° 0.1 mm 3 mps 651 mmHg 65%
    12:00 +10°C° 0.1 mm 4 mps 651 mmHg 64%
    13:00 +10°C° 0 mm 4 mps 651 mmHg 64%
    14:00 +10°C° 0 mm 4 mps 652 mmHg 64%
    15:00 +11°C° 0 mm 3 mps 652 mmHg 64%
    16:00 +10°C° 0.1 mm 3 mps 652 mmHg 67%
    17:00 +9°C° 0.1 mm 2 mps 652 mmHg 70%
    18:00 +8°C° 0.1 mm 2 mps 652 mmHg 73%
    19:00 +8°C° 0.1 mm 2 mps 652 mmHg 73%
    20:00 +8°C° 0.1 mm 2 mps 652 mmHg 73%
    21:00 +8°C° 0.1 mm 2 mps 652 mmHg 73%
    22:00 +8°C° 0.2 mm 2 mps 652 mmHg 73%
    23:00 +7°C° 0.2 mm 2 mps 652 mmHg 73%

    Mañana, 16 Noviembre, Viernes

    Tiempo Temperatura Precipitaciones Viento Presión Humedad
    00:00 +7°C° 0.2 mm 2 mps 652 mmHg 74%
    01:00 +7°C° 0.1 mm 2 mps 652 mmHg 74%
    02:00 +7°C° 0.1 mm 2 mps 652 mmHg 74%
    03:00 +7°C° 0.1 mm 2 mps 652 mmHg 74%
    04:00 +7°C° 0.1 mm 2 mps 652 mmHg 75%
    05:00 +7°C° 0.1 mm 2 mps 652 mmHg 76%
    06:00 +6°C° 0.1 mm 2 mps 652 mmHg 76%
    07:00 +7°C° 0 mm 2 mps 652 mmHg 73%
    08:00 +8°C° 0 mm 2 mps 653 mmHg 70%
    09:00 +9°C° 0 mm 2 mps 653 mmHg 67%
    10:00 +10°C° 0 mm 2 mps 653 mmHg 66%
    11:00 +11°C° 0 mm 3 mps 653 mmHg 65%
    12:00 +11°C° 0 mm 3 mps 653 mmHg 64%
    13:00 +11°C° 0 mm 3 mps 653 mmHg 64%
    14:00 +12°C° 0 mm 2 mps 653 mmHg 64%
    15:00 +13°C° 0 mm 2 mps 654 mmHg 65%
    16:00 +12°C° 0 mm 2 mps 653 mmHg 67%
    17:00 +10°C° 0 mm 2 mps 653 mmHg 70%
    18:00 +9°C° 0 mm 1 mps 653 mmHg 73%
    19:00 +8°C° 0 mm 2 mps 654 mmHg 72%
    20:00 +8°C° 0 mm 2 mps 654 mmHg 72%
    21:00 +8°C° 0 mm 2 mps 654 mmHg 71%
    22:00 +8°C° 0 mm 2 mps 654 mmHg 72%
    23:00 +8°C° 0 mm 2 mps 654 mmHg 72%

    Pasado mañana, 17 Noviembre, Sábado

    Tiempo Temperatura Precipitaciones Viento Presión Humedad
    00:00 +8°C° 0 mm 2 mps 654 mmHg 72%
    01:00 +8°C° 0 mm 2 mps 654 mmHg 72%
    02:00 +7°C° 0 mm 2 mps 654 mmHg 72%
    03:00 +7°C° 0 mm 2 mps 654 mmHg 73%
    04:00 +7°C° 0 mm 2 mps 654 mmHg 75%
    05:00 +7°C° 0 mm 2 mps 654 mmHg 76%
    06:00 +7°C° 0 mm 2 mps 654 mmHg 78%
    07:00 +8°C° 0 mm 2 mps 654 mmHg 76%
    08:00 +8°C° 0 mm 2 mps 655 mmHg 74%
    09:00 +9°C° 0 mm 2 mps 655 mmHg 72%
    10:00 +10°C° 0 mm 2 mps 655 mmHg 69%
    11:00 +10°C° 0 mm 2 mps 655 mmHg 66%
    12:00 +12°C° 0 mm 2 mps 655 mmHg 64%
    13:00 +12°C° 0 mm 2 mps 655 mmHg 63%
    14:00 +10°C° 0 mm 2 mps 654 mmHg 61%
    15:00 +10°C° 0 mm 2 mps 654 mmHg 60%
    16:00 +9°C° 0 mm 2 mps 654 mmHg 63%
    17:00 +8°C° 0 mm 2 mps 654 mmHg 66%
    18:00 +7°C° 0 mm 2 mps 654 mmHg 69%
    19:00 +7°C° 0 mm 2 mps 654 mmHg 69%
    20:00 +6°C° 0 mm 2 mps 654 mmHg 70%
    21:00 +6°C° 0 mm 2 mps 654 mmHg 70%
    22:00 +5°C° 0 mm 2 mps 654 mmHg 71%
    23:00 +5°C° 0 mm 2 mps 654 mmHg 71%

    18 Noviembre, Domingo

    Tiempo Temperatura Precipitaciones Viento Presión Humedad
    00:00 +5°C° 0 mm 2 mps 654 mmHg 71%
    01:00 +5°C° 0 mm 2 mps 654 mmHg 72%
    02:00 +5°C° 0 mm 2 mps 654 mmHg 73%
    03:00 +5°C° 0 mm 2 mps 654 mmHg 74%
    04:00 +4°C° 0 mm 2 mps 654 mmHg 76%
    05:00 +4°C° 0 mm 2 mps 654 mmHg 77%
    06:00 +5°C° 0 mm 1 mps 653 mmHg 79%
    07:00 +5°C° 0 mm 2 mps 654 mmHg 76%
    08:00 +6°C° 0 mm 2 mps 654 mmHg 72%
    09:00 +7°C° 0 mm 2 mps 654 mmHg 69%
    10:00 +7°C° 0 mm 2 mps 654 mmHg 67%
    11:00 +8°C° 0 mm 2 mps 654 mmHg 64%
    12:00 +9°C° 0 mm 2 mps 654 mmHg 61%
    13:00 +8°C° 0 mm 2 mps 653 mmHg 61%
    14:00 +8°C° 0 mm 2 mps 653 mmHg 61%
    15:00 +8°C° 0 mm 2 mps 653 mmHg 61%
    16:00 +8°C° 0.1 mm 2 mps 653 mmHg 64%
    17:00 +8°C° 0.1 mm 1 mps 653 mmHg 66%
    18:00 +7°C° 0.1 mm 1 mps 653 mmHg 69%
    19:00 +7°C° 0.1 mm 1 mps 653 mmHg 69%
    20:00 +6°C° 0.1 mm 1 mps 653 mmHg 69%
    21:00 +6°C° 0.1 mm 1 mps 653 mmHg 69%
    22:00 +6°C° 0 mm 1 mps 653 mmHg 70%
    23:00 +5°C° 0 mm 1 mps 653 mmHg 70%

    19 Noviembre, Lunes

    Tiempo Temperatura Precipitaciones Viento Presión Humedad
    00:00 +4°C° 0 mm 2 mps 653 mmHg 70%
    01:00 +4°C° 0 mm 2 mps 653 mmHg 71%
    02:00 +4°C° 0 mm 2 mps 653 mmHg 71%
    03:00 +3°C° 0 mm 2 mps 653 mmHg 72%
    04:00 +3°C° 0 mm 2 mps 653 mmHg 73%
    05:00 +3°C° 0 mm 2 mps 653 mmHg 74%
    06:00 +3°C° 0 mm 2 mps 653 mmHg 74%
    07:00 +4°C° 0 mm 2 mps 653 mmHg 71%
    08:00 +6°C° 0 mm 2 mps 654 mmHg 67%
    09:00 +7°C° 0 mm 2 mps 654 mmHg 64%
    10:00 +8°C° 0 mm 2 mps 654 mmHg 62%
    11:00 +9°C° 0 mm 2 mps 654 mmHg 60%
    12:00 +10°C° 0 mm 2 mps 654 mmHg 58%
    13:00 +10°C° 0 mm 2 mps 654 mmHg 57%
    14:00 +10°C° 0 mm 2 mps 654 mmHg 56%
    15:00 +10°C° 0 mm 2 mps 654 mmHg 56%
    16:00 +9°C° 0 mm 2 mps 654 mmHg 58%
    17:00 +8°C° 0 mm 2 mps 654 mmHg 61%
    18:00 +8°C° 0 mm 1 mps 653 mmHg 63%
    19:00 +7°C° 0 mm 2 mps 653 mmHg 62%
    20:00 +6°C° 0 mm 2 mps 654 mmHg 62%
    21:00 +6°C° 0 mm 2 mps 654 mmHg 61%
    22:00 +6°C° 0 mm 2 mps 654 mmHg 62%
    23:00 +6°C° 0 mm 2 mps 653 mmHg 63%

    20 Noviembre, Martes

    Tiempo Temperatura Precipitaciones Viento Presión Humedad
    00:00 +7°C° 0 mm 1 mps 653 mmHg 65%
    01:00 +6°C° 0 mm 2 mps 653 mmHg 65%
    02:00 +6°C° 0 mm 2 mps 653 mmHg 66%
    03:00 +6°C° 0 mm 2 mps 653 mmHg 66%
    04:00 +5°C° 0 mm 2 mps 653 mmHg 67%
    05:00 +5°C° 0 mm 2 mps 653 mmHg 67%
    06:00 +5°C° 0 mm 2 mps 653 mmHg 67%
    07:00 +6°C° 0 mm 2 mps 653 mmHg 65%
    08:00 +7°C° 0 mm 2 mps 654 mmHg 62%
    09:00 +9°C° 0 mm 2 mps 654 mmHg 59%
    10:00 +9°C° 0 mm 2 mps 654 mmHg 59%
    11:00 +10°C° 0 mm 2 mps 654 mmHg 58%
    12:00 +12°C° 0 mm 2 mps 654 mmHg 58%
    13:00 +12°C° 0 mm 2 mps 653 mmHg 57%
    14:00 +12°C° 0 mm 2 mps 653 mmHg 57%
    15:00 +12°C° 0 mm 2 mps 653 mmHg 56%
    16:00 +9°C° 0 mm 2 mps 653 mmHg 60%
    17:00 +8°C° 0 mm 2 mps 653 mmHg 63%
    18:00 +8°C° 0 mm 1 mps 653 mmHg 66%
    19:00 +8°C° 0 mm 1 mps 653 mmHg 67%
    20:00 +7°C° 0 mm 1 mps 653 mmHg 69%
    21:00 +7°C° 0 mm 1 mps 653 mmHg 70%
    22:00 +7°C° 0 mm 1 mps 653 mmHg 71%
    23:00 +6°C° 0 mm 1 mps 653 mmHg 72%
    Mostrar más